"datetime","# probes","# resolvers","can_ipv6","can_ipv6_prbs","can_tcp","can_tcp_prbs","can_tcp6","can_tcp6_prbs","does_ecs","does_ecs_prbs","does_flagday","does_flagday_prbs","does_rov4","does_rov4_prbs","does_rov6","does_rov6_prbs","does_qnamemin","doesnt_qnamemin","does_qnamemin_prbs","doesnt_qnamemin_prbs","does_nxdomain","doesnt_nxdomain","does_nxdomain_prbs","doesnt_nxdomain_prbs","has_ta_19036","hasnt_ta_19036","has_ta_19036_prbs","hasnt_ta_19036_prbs","has_ta_20326","hasnt_ta_20326","has_ta_20326_prbs","hasnt_ta_20326_prbs","can_rsamd5","cannot_rsamd5","broken_rsamd5","can_rsamd5_prbs","cannot_rsamd5_prbs","broken_rsamd5_prbs","can_dsa","cannot_dsa","broken_dsa","can_dsa_prbs","cannot_dsa_prbs","broken_dsa_prbs","can_rsasha1","cannot_rsasha1","broken_rsasha1","can_rsasha1_prbs","cannot_rsasha1_prbs","broken_rsasha1_prbs","can_dsansec3","cannot_dsansec3","broken_dsansec3","can_dsansec3_prbs","cannot_dsansec3_prbs","broken_dsansec3_prbs","can_rsansec3","cannot_rsansec3","broken_rsansec3","can_rsansec3_prbs","cannot_rsansec3_prbs","broken_rsansec3_prbs","can_rsasha256","cannot_rsasha256","broken_rsasha256","can_rsasha256_prbs","cannot_rsasha256_prbs","broken_rsasha256_prbs","can_rsasha512","cannot_rsasha512","broken_rsasha512","can_rsasha512_prbs","cannot_rsasha512_prbs","broken_rsasha512_prbs","can_eccgost","cannot_eccgost","broken_eccgost","can_eccgost_prbs","cannot_eccgost_prbs","broken_eccgost_prbs","can_ecdsa256","cannot_ecdsa256","broken_ecdsa256","can_ecdsa256_prbs","cannot_ecdsa256_prbs","broken_ecdsa256_prbs","can_ecdsa384","cannot_ecdsa384","broken_ecdsa384","can_ecdsa384_prbs","cannot_ecdsa384_prbs","broken_ecdsa384_prbs","can_ed25519","cannot_ed25519","broken_ed25519","can_ed25519_prbs","cannot_ed25519_prbs","broken_ed25519_prbs","can_ed448","cannot_ed448","broken_ed448","can_ed448_prbs","cannot_ed448_prbs","broken_ed448_prbs","can_gost","cannot_gost","broken_gost","can_gost_prbs","cannot_gost_prbs","broken_gost_prbs","can_sha384","cannot_sha384","broken_sha384","can_sha384_prbs","cannot_sha384_prbs","broken_sha384_prbs","is_internal","is_forwarding","is_external","is_internal_prbs","is_forwarding_prbs","is_external_prbs"
2017-06-20T23:59:58Z,110,174,157,101,172,109,154,98,92,63,0,0,0,0,0,0,2,172,1,109,0,172,0,109,0,0,0,0,0,0,0,0,41,43,90,31,45,58,79,95,0,55,70,0,169,5,0,107,23,0,80,94,0,56,69,0,169,5,0,107,23,0,170,4,0,107,22,0,170,4,0,108,22,0,42,129,3,29,90,2,170,2,2,107,23,1,169,3,2,107,24,1,0,171,3,0,108,2,0,169,5,0,107,3,130,40,4,81,47,3,174,0,0,110,21,0,63,32,79,54,30,49
2017-06-21T23:59:59Z,110,175,157,101,173,109,153,98,94,64,0,0,0,0,0,0,2,173,1,109,0,173,0,109,0,0,0,0,0,0,0,0,43,42,90,32,45,58,82,92,1,56,69,1,174,1,0,109,21,0,85,89,1,59,66,1,175,0,0,110,20,0,175,0,0,110,21,0,175,0,0,110,20,0,44,128,3,30,89,2,172,1,2,108,23,1,172,1,2,108,23,1,0,172,3,0,108,2,0,171,4,0,108,3,132,39,4,82,47,3,175,0,0,110,23,0,65,31,79,55,29,50
2017-06-22T23:59:58Z,110,174,158,102,172,109,154,98,92,61,0,0,0,0,0,0,2,172,1,109,0,172,0,109,0,0,0,0,0,0,0,0,41,44,89,30,46,57,82,91,1,57,68,1,173,1,0,109,21,0,84,90,0,59,66,0,174,0,0,110,20,0,174,0,0,110,20,0,174,0,0,110,20,0,42,128,4,30,89,3,172,0,2,109,23,1,172,0,2,109,22,1,0,171,3,0,108,2,0,171,3,0,108,2,132,38,4,82,47,3,174,0,0,110,23,0,65,30,79,57,28,49
2017-06-23T23:59:59Z,110,175,159,102,171,109,154,97,91,61,0,0,0,0,0,0,2,173,1,109,0,173,0,109,0,0,0,0,0,0,0,0,42,43,90,31,46,58,84,91,0,58,67,0,174,1,0,109,21,0,84,91,0,59,66,0,174,1,0,110,21,0,175,0,0,110,20,0,175,0,0,110,20,0,45,127,3,31,88,2,171,2,2,108,24,1,172,1,2,108,23,1,0,171,4,0,108,3,0,172,3,0,108,2,132,39,4,82,47,3,175,0,0,110,22,0,66,30,79,57,29,49
2017-06-24T23:59:59Z,107,169,154,100,167,106,150,96,89,61,0,0,0,0,0,0,0,169,0,107,0,167,0,106,0,0,0,0,0,0,0,0,41,40,88,30,42,57,81,88,0,56,66,0,169,0,0,107,19,0,85,84,0,59,63,0,169,0,0,107,20,0,169,0,0,107,19,0,169,0,0,107,19,0,44,122,3,30,86,2,167,0,2,106,21,1,167,0,2,106,21,1,0,164,5,0,104,3,1,165,3,1,105,2,129,35,5,81,44,4,169,0,0,107,22,0,62,30,77,54,28,48
2017-06-25T23:59:59Z,109,173,158,102,171,108,154,98,92,62,0,0,0,0,0,0,2,171,1,108,0,171,0,108,0,0,0,0,0,0,0,0,44,40,89,33,43,57,85,87,1,59,65,1,173,0,0,109,19,0,86,87,0,59,65,0,173,0,0,109,19,0,173,0,0,109,19,0,173,0,0,109,20,0,44,124,5,30,87,3,171,0,2,108,21,1,171,0,2,108,21,1,1,167,5,1,106,3,0,168,5,0,106,3,130,37,6,81,45,4,173,0,0,109,22,0,66,30,77,57,27,48
2017-06-26T23:59:59Z,113,178,162,105,175,112,156,100,93,62,0,0,0,0,0,0,2,176,1,112,0,178,0,113,0,0,0,0,0,0,0,0,42,45,91,31,48,58,87,91,0,60,69,0,176,2,0,111,24,0,89,89,0,62,67,0,177,1,0,112,22,0,177,1,0,112,23,0,177,1,0,112,22,0,43,129,6,31,90,4,175,1,2,111,24,1,175,1,2,111,24,1,0,173,5,0,110,3,0,172,6,0,110,4,133,39,6,83,48,4,178,0,0,113,24,0,68,31,79,59,28,49
2017-06-27T23:59:58Z,114,181,164,106,179,113,159,102,96,63,0,0,0,0,0,0,2,179,1,113,0,179,0,113,0,0,0,0,0,0,0,0,46,43,92,35,49,58,87,93,1,62,69,1,181,0,0,114,22,0,90,91,0,63,68,0,180,1,0,114,23,0,179,2,0,113,24,0,180,1,0,113,23,0,45,130,6,32,91,4,179,0,2,113,24,1,179,0,2,113,24,1,0,176,5,0,111,3,0,176,5,0,111,3,134,41,6,83,50,4,181,0,0,114,24,0,70,31,80,60,30,49
2017-06-28T23:59:58Z,116,182,165,108,180,115,161,104,100,68,0,0,0,0,0,0,2,180,1,115,0,180,0,115,0,0,0,0,0,0,0,0,43,45,94,32,50,60,86,95,1,61,72,1,180,2,0,114,24,0,86,94,2,61,71,1,181,1,0,115,24,0,179,3,0,114,24,0,181,1,0,115,24,0,45,131,6,32,93,4,180,0,2,115,24,1,180,0,2,115,24,1,0,176,6,0,113,4,0,177,5,0,113,3,135,41,6,85,51,4,182,0,0,116,25,0,70,31,81,61,31,50
2017-06-29T23:59:59Z,117,184,167,109,182,116,161,104,99,68,0,0,0,0,0,0,2,182,1,116,0,184,0,117,0,0,0,0,0,0,0,0,46,41,97,35,49,63,87,97,0,61,74,0,183,1,0,116,24,0,87,97,0,61,74,0,183,1,0,116,23,0,181,3,0,115,24,1,183,1,0,116,23,0,44,134,6,31,96,4,180,2,2,115,27,1,180,2,2,114,27,1,0,177,7,0,113,4,0,178,6,0,114,4,139,39,6,87,50,4,184,0,0,117,25,0,67,34,83,58,33,52
2017-06-30T23:59:58Z,115,179,163,107,177,114,155,102,98,66,0,0,0,0,0,0,2,177,1,114,0,177,0,114,0,0,0,0,0,0,0,0,44,39,96,34,48,62,84,95,0,59,72,0,178,1,0,114,24,0,84,95,0,59,72,0,178,1,0,114,23,0,175,3,1,112,24,2,178,1,0,114,23,0,44,130,5,30,94,3,176,1,2,113,26,1,176,1,2,113,26,1,0,173,6,0,112,4,0,173,6,0,112,4,136,37,6,86,50,4,179,0,0,115,25,0,64,32,83,57,31,52
2017-07-01T23:59:59Z,113,177,161,105,175,112,156,101,99,68,0,0,0,0,0,0,0,177,0,113,0,177,0,113,0,0,0,0,0,0,0,0,44,38,95,34,44,61,86,91,0,60,69,0,177,0,0,113,21,0,86,91,0,60,69,0,177,0,0,113,21,0,174,3,0,111,23,0,177,0,0,113,21,0,42,129,6,30,92,4,174,1,2,111,24,1,174,1,2,111,24,1,0,172,5,0,110,3,0,170,7,0,109,4,135,36,6,85,47,4,177,0,0,113,23,0,63,33,81,56,30,51
2017-07-02T23:59:59Z,114,178,162,106,176,113,157,102,98,68,0,0,0,0,0,0,2,176,1,113,0,178,0,114,0,0,0,0,0,0,0,0,44,40,94,34,47,61,83,95,0,58,72,0,177,1,0,113,23,0,84,93,1,59,71,1,178,0,0,114,22,0,178,0,0,114,22,0,178,0,0,114,22,0,40,131,7,28,94,4,175,1,2,112,25,1,175,1,2,112,25,1,0,173,5,0,111,3,1,171,6,1,111,4,134,38,6,84,49,4,178,0,0,114,24,0,65,32,81,57,31,51
2017-07-03T23:59:59Z,118,185,168,110,183,117,161,106,102,69,0,0,0,0,0,0,2,183,1,117,0,183,0,117,0,0,0,0,0,0,0,0,44,46,95,34,50,62,91,94,0,63,73,0,183,2,0,116,24,0,90,95,0,63,73,0,183,2,0,116,24,0,180,5,0,113,26,0,183,2,0,116,25,0,43,135,7,29,98,4,179,3,3,114,28,2,181,2,2,115,26,1,0,180,5,0,115,3,1,179,5,1,115,3,137,42,6,85,52,4,185,0,0,118,25,0,68,36,81,59,33,51
2017-07-04T23:59:59Z,116,183,166,108,181,115,159,104,94,65,0,0,0,0,0,0,2,181,1,115,0,183,0,116,0,0,0,0,0,0,0,0,45,45,93,35,50,60,90,93,0,62,71,0,180,3,0,114,24,0,91,92,0,63,70,0,181,2,0,114,23,0,176,7,0,111,26,0,180,3,0,114,24,0,45,133,5,30,95,3,179,2,2,113,25,1,179,2,2,113,25,1,0,177,6,0,113,4,0,177,6,0,113,4,134,43,6,83,51,4,183,0,0,116,23,0,70,33,80,60,31,50
2017-07-05T23:59:59Z,117,184,167,109,181,116,160,104,92,63,0,0,0,0,0,0,2,182,1,116,0,184,0,117,0,0,0,0,0,0,0,0,44,49,91,34,52,59,91,93,0,63,71,0,180,4,0,114,24,0,92,92,0,64,70,0,181,3,0,115,23,0,179,5,0,113,25,0,181,3,0,115,23,0,43,134,7,30,95,4,177,5,2,112,27,1,177,5,2,112,27,1,1,178,5,1,114,3,1,178,5,1,114,3,131,47,6,82,53,4,184,0,0,117,23,0,70,36,78,59,34,49
2017-07-06T23:59:58Z,114,181,164,106,178,113,153,102,92,63,0,0,0,0,0,0,2,179,1,113,0,179,0,113,0,0,0,0,0,0,0,0,44,48,89,34,48,58,90,90,1,61,70,1,180,1,0,113,21,0,93,88,0,63,68,0,180,1,0,113,21,0,179,2,0,113,21,0,180,1,0,113,21,0,45,130,6,30,92,4,177,2,2,111,24,1,177,2,2,111,24,1,0,176,5,0,111,3,1,174,6,1,110,4,130,45,6,81,50,4,181,0,0,114,22,0,73,32,76,60,30,48
2017-07-07T23:59:59Z,113,178,161,105,176,112,156,102,89,63,0,0,0,0,0,0,2,176,1,112,0,176,0,112,0,0,0,0,0,0,0,0,46,46,86,36,47,56,93,84,1,65,66,1,178,0,0,113,19,0,93,85,0,64,66,0,178,0,0,113,19,0,178,0,0,113,19,0,178,0,0,113,19,0,47,126,5,32,91,3,176,0,2,112,21,1,176,0,2,112,21,1,2,171,5,2,110,3,1,172,5,1,110,3,129,43,6,81,48,4,178,0,0,113,21,0,71,33,74,60,31,47
2017-07-08T23:59:59Z,113,180,163,105,178,112,158,102,92,62,0,0,0,0,0,0,2,178,1,112,0,180,0,113,0,0,0,0,0,0,0,0,45,47,88,35,48,57,88,92,0,61,70,0,177,3,0,111,22,0,92,88,0,63,67,0,177,3,0,111,21,0,177,3,0,111,21,0,177,3,0,111,21,0,46,129,5,31,91,3,174,4,2,109,24,1,174,4,2,109,24,1,1,174,5,1,110,3,2,173,5,1,110,3,129,44,7,81,49,5,180,0,0,113,22,0,69,35,76,58,32,49
2017-07-09T23:59:59Z,113,178,161,105,175,112,155,101,95,64,0,0,0,0,0,0,2,176,2,112,0,175,0,112,0,0,0,0,0,0,0,0,45,43,90,35,45,59,88,90,0,62,68,0,177,1,0,112,19,0,87,90,1,61,68,1,178,0,0,113,18,0,178,0,0,113,18,0,178,0,0,113,18,0,41,131,6,29,92,5,176,0,2,112,20,1,176,0,2,112,20,1,0,173,5,0,110,4,0,173,5,0,110,4,129,43,6,81,47,4,178,0,0,113,20,0,69,32,77,60,28,48
2017-07-10T23:59:59Z,114,180,163,106,178,113,158,102,94,63,0,0,0,0,0,0,2,178,2,113,0,180,0,114,0,0,0,0,0,0,0,0,44,41,95,35,45,61,86,94,0,61,70,0,180,0,0,114,20,0,89,91,0,62,68,0,180,0,0,114,20,0,180,0,0,114,20,0,180,0,0,114,20,0,43,132,5,30,92,3,177,1,2,112,23,1,177,1,2,112,23,1,0,175,5,0,111,3,0,173,7,0,110,4,131,43,6,82,49,4,180,0,0,114,22,0,68,31,81,59,28,50
2017-07-11T23:59:59Z,117,183,166,109,181,116,161,105,95,64,0,0,0,0,0,0,3,180,2,116,0,183,0,117,0,0,0,0,0,0,0,0,45,45,93,36,48,61,88,95,0,62,71,0,180,3,0,114,22,0,88,95,0,61,71,0,178,5,0,113,23,0,178,5,0,113,23,0,178,5,0,113,23,0,42,135,6,29,95,4,178,3,2,114,24,1,179,2,2,115,23,1,0,177,6,0,114,4,0,175,8,0,113,5,131,45,7,83,50,5,183,0,0,117,22,0,68,36,79,60,33,49
2017-07-12T23:59:59Z,112,177,159,104,174,111,155,101,92,63,0,0,0,0,0,0,3,173,2,111,0,175,0,111,0,0,0,0,0,0,0,0,41,45,90,32,47,60,84,91,1,58,69,1,174,2,0,110,21,0,86,88,2,59,67,2,174,1,1,110,20,1,174,1,1,110,20,1,174,1,1,110,20,1,41,127,8,28,90,6,171,2,3,108,23,2,174,1,2,110,22,1,0,170,7,0,109,5,0,171,6,0,109,4,126,42,8,80,48,6,177,0,0,112,22,0,67,33,76,57,30,48
2017-07-13T23:59:59Z,116,184,166,108,181,115,161,104,91,63,0,0,0,0,0,0,4,180,3,115,0,180,0,114,0,0,0,0,0,0,0,0,45,49,90,35,50,60,92,92,0,64,70,0,183,1,0,115,20,0,94,89,1,65,67,1,181,3,0,114,21,0,180,4,0,113,22,0,180,4,0,113,22,0,45,133,6,31,93,4,178,4,2,112,24,1,178,4,2,112,24,1,0,178,6,0,113,4,1,177,6,1,113,4,131,46,7,83,49,5,184,0,0,116,21,0,72,35,77,60,31,48
2017-07-14T23:59:59Z,112,177,159,104,175,111,154,100,87,61,0,0,0,0,0,0,3,174,2,111,0,175,1,111,0,0,0,0,0,0,0,0,44,43,90,34,46,60,90,87,0,63,67,1,177,0,0,112,19,1,91,86,0,62,66,1,177,0,0,112,19,1,177,0,0,112,19,1,177,0,0,112,19,1,44,127,6,30,90,5,175,0,2,111,21,2,175,0,2,111,21,2,0,171,6,0,109,5,0,171,6,0,109,5,127,42,8,81,47,7,177,0,0,112,21,0,68,33,76,57,30,48
2017-07-15T23:59:59Z,115,181,163,107,179,114,158,103,89,61,0,0,0,0,0,0,3,178,2,114,0,179,0,114,0,0,0,0,0,0,0,0,44,49,88,34,49,59,92,89,0,64,68,0,178,3,0,113,21,0,93,88,0,64,67,0,178,3,0,113,21,0,178,3,0,113,21,0,178,3,0,113,21,0,43,130,8,30,92,5,177,2,2,113,22,1,177,2,2,113,22,1,0,175,6,0,112,4,0,175,6,0,112,4,128,45,8,81,49,6,181,0,0,115,21,0,71,34,76,60,30,48
2017-07-16T23:59:59Z,114,179,161,106,177,113,156,102,89,62,0,0,0,0,0,0,3,176,2,113,0,177,0,113,0,0,0,0,0,0,0,0,45,46,88,35,48,59,91,88,0,64,67,0,179,0,0,114,19,0,94,85,0,65,65,0,179,0,0,114,19,0,179,0,0,114,19,0,179,0,0,114,19,0,44,129,6,31,91,4,176,1,2,112,22,1,176,1,2,112,22,1,0,173,6,0,111,4,0,173,6,0,111,4,127,44,8,81,49,6,179,0,0,114,21,0,72,31,76,61,28,48
2017-07-17T23:59:59Z,115,185,168,108,183,114,162,104,96,66,0,0,0,0,0,0,3,182,2,114,0,183,0,114,0,0,0,0,0,0,0,0,45,45,95,35,48,62,91,94,0,62,70,0,185,0,0,115,20,0,91,93,1,62,69,1,185,0,0,115,20,0,185,0,0,115,20,0,185,0,0,115,20,0,39,140,6,27,96,4,182,1,2,113,23,1,182,1,2,113,23,1,1,176,8,1,111,5,0,179,6,0,112,4,130,46,9,81,50,6,185,0,0,115,22,0,70,32,83,59,30,51
2017-07-18T23:59:59Z,119,190,173,112,187,118,168,108,97,66,0,0,0,0,0,0,3,187,2,118,0,190,0,119,0,0,0,0,0,0,0,0,46,47,97,35,50,63,94,96,0,64,72,0,187,3,0,116,23,0,96,94,0,65,70,0,188,2,0,117,22,0,189,1,0,118,22,0,188,2,0,117,22,0,44,138,8,30,96,5,185,3,2,115,25,1,185,3,2,115,25,1,2,182,6,1,115,4,0,184,6,0,116,4,137,46,7,85,51,5,190,0,0,119,23,0,74,33,83,61,31,51
2017-07-19T23:59:59Z,118,189,172,111,187,117,168,108,96,64,0,0,0,0,0,0,2,187,2,117,0,189,0,118,0,0,0,0,0,0,0,0,45,50,94,34,51,61,93,96,0,64,72,0,186,3,0,116,23,0,96,93,0,65,70,0,189,0,0,118,21,0,186,3,0,116,23,0,186,3,0,116,23,0,47,137,5,31,96,3,183,4,2,114,26,1,181,6,2,113,27,1,0,183,6,0,115,4,1,183,5,1,115,3,135,48,6,84,53,4,189,0,0,118,23,0,71,35,83,59,32,51
2017-07-20T23:59:59Z,118,188,171,111,186,117,167,108,97,66,0,0,0,0,0,0,3,185,2,117,0,186,0,117,0,0,0,0,0,0,0,0,44,48,96,34,50,63,87,99,2,60,74,1,183,5,0,114,24,0,89,97,2,61,72,1,183,5,0,114,24,0,182,6,0,113,25,0,182,6,0,113,25,0,45,137,6,30,96,4,180,6,2,112,27,1,180,6,2,112,27,1,0,182,6,0,115,4,0,182,6,0,115,4,134,44,10,84,50,7,188,0,0,118,23,0,70,35,83,59,32,51
2017-07-21T23:59:59Z,114,185,169,107,183,113,165,104,95,64,0,0,0,0,0,0,3,182,2,113,0,185,0,114,0,0,0,0,0,0,0,0,42,48,95,32,47,62,89,96,0,60,70,0,184,1,0,113,21,0,91,94,0,61,68,0,184,1,0,113,21,0,184,1,0,113,21,0,184,1,0,113,21,0,43,136,6,28,93,4,182,1,2,112,23,1,181,2,2,112,24,1,0,179,6,0,111,4,0,178,7,0,111,5,131,47,7,80,51,5,185,0,0,114,23,0,71,31,83,58,29,51
2017-07-22T23:59:59Z,115,186,170,108,183,113,165,104,97,64,0,0,0,0,0,0,2,184,2,114,0,183,0,113,0,0,0,0,0,0,0,0,43,45,98,33,47,63,89,97,0,60,72,0,185,1,0,114,22,0,92,94,0,62,69,0,186,0,0,115,21,0,186,0,0,115,21,0,186,0,0,115,21,0,42,138,6,28,95,4,184,0,2,114,24,1,184,0,2,114,23,1,1,180,5,1,112,3,0,181,5,0,112,3,136,44,6,83,50,4,186,0,0,115,24,0,69,32,85,57,29,52
2017-07-23T23:59:59Z,116,187,171,109,185,115,167,106,98,65,0,0,0,0,0,0,3,184,3,114,0,185,0,115,0,0,0,0,0,0,0,0,42,51,94,32,49,61,85,100,2,59,73,1,181,6,0,112,24,0,89,97,1,61,71,1,181,6,0,113,24,0,182,5,0,113,23,0,180,7,0,112,25,0,42,140,5,28,96,3,180,5,2,112,25,1,179,6,2,112,26,1,1,181,5,1,113,3,0,182,5,0,113,3,133,48,6,82,51,4,187,0,0,116,22,0,70,34,83,58,29,51
2017-07-24T23:59:59Z,114,184,168,107,182,113,164,104,97,65,0,0,0,0,0,0,2,182,2,113,0,184,0,114,0,0,0,0,0,0,0,0,44,47,93,33,47,60,89,95,0,61,70,0,178,6,0,111,24,0,91,93,0,62,68,0,181,3,0,113,22,0,179,5,0,112,23,0,181,3,0,113,22,0,42,137,5,28,94,3,173,9,2,107,29,1,177,5,2,110,25,1,0,179,5,0,111,3,0,179,5,0,111,3,129,49,6,78,53,4,184,0,0,114,22,0,68,34,82,57,29,50
2017-07-25T23:59:59Z,116,186,170,109,184,115,165,105,101,67,0,0,0,0,0,0,3,183,2,115,0,186,0,116,0,0,0,0,0,0,0,0,41,49,96,31,47,63,88,98,0,60,72,0,182,4,0,114,22,0,91,95,0,62,69,0,185,1,0,115,21,0,184,2,0,114,21,0,182,4,0,113,22,0,44,135,7,29,94,5,180,4,2,112,24,1,180,4,2,112,24,1,0,180,6,0,113,4,0,180,6,0,113,4,132,47,7,81,51,5,186,0,0,116,23,0,67,36,83,56,32,51
2017-07-26T23:59:59Z,118,190,174,111,187,117,170,108,95,63,0,0,0,0,0,0,2,188,2,117,0,190,0,118,0,0,0,0,0,0,0,0,44,50,96,33,50,62,91,99,0,62,73,0,186,4,0,115,24,0,91,99,0,61,73,0,186,4,0,115,24,0,186,4,0,115,24,0,186,4,0,115,25,0,43,142,5,28,98,3,183,5,2,114,27,1,181,7,2,113,28,1,0,184,6,0,115,4,1,184,5,1,115,3,135,49,6,83,53,4,190,0,0,118,24,0,72,33,85,60,29,52
2017-07-27T23:59:59Z,117,188,172,110,185,115,168,107,99,66,0,0,0,0,0,0,2,186,2,116,0,185,0,115,0,0,0,0,0,0,0,0,43,47,98,33,49,63,89,99,0,62,72,0,186,2,0,116,23,0,90,98,0,62,71,0,186,2,0,116,24,0,186,2,0,116,22,0,186,2,0,116,23,0,39,144,5,26,99,3,183,3,2,114,27,1,183,3,2,114,27,1,2,181,5,1,113,3,0,181,7,0,113,4,132,50,6,81,55,4,188,0,0,117,25,0,70,32,86,59,28,53
2017-07-28T23:59:59Z,115,186,170,108,183,114,166,105,100,66,0,0,0,0,0,0,3,183,2,114,0,186,0,115,0,0,0,0,0,0,0,0,47,43,96,36,45,62,90,96,0,62,70,0,185,1,0,114,21,0,92,94,0,62,68,0,185,1,0,114,21,0,185,1,0,114,21,0,185,1,0,114,21,0,40,140,6,27,95,4,183,1,2,113,23,1,182,2,2,113,24,1,0,180,6,0,112,4,0,180,6,0,112,4,132,47,7,80,52,5,186,0,0,115,22,0,69,32,85,57,29,52
2017-07-29T23:59:59Z,114,184,169,108,182,113,165,105,93,62,0,0,0,0,0,0,2,182,2,113,0,184,0,114,0,0,0,0,0,0,0,0,45,48,91,34,48,59,88,96,0,61,69,0,183,1,0,114,22,0,89,93,2,61,67,1,184,0,0,114,21,0,181,3,0,113,23,0,181,2,1,112,22,1,41,140,3,27,95,2,181,1,2,112,24,1,181,1,2,112,24,1,0,180,4,0,112,3,0,180,4,0,112,3,130,49,5,79,53,4,184,0,0,114,23,0,70,31,83,58,29,51
2017-07-30T23:59:59Z,114,183,168,108,179,113,163,105,97,66,0,0,0,0,0,0,2,181,2,113,0,179,0,112,0,0,0,0,0,0,0,0,43,46,94,33,49,62,87,96,0,60,70,0,182,1,0,113,23,0,88,95,0,60,69,0,181,2,0,113,23,0,181,2,0,113,23,0,181,2,0,113,24,0,40,140,3,26,96,2,178,3,2,111,26,1,178,3,2,111,26,1,0,178,5,0,111,3,0,179,4,0,112,3,129,50,4,79,55,3,183,0,0,114,25,0,68,31,84,58,28,52
2017-07-31T23:59:59Z,113,182,167,107,180,112,162,103,99,66,0,0,0,0,0,0,1,181,1,113,0,180,0,112,0,0,0,0,0,0,0,0,45,42,95,35,45,62,87,95,0,60,68,0,181,1,0,113,21,0,88,94,0,60,67,0,182,0,0,113,20,0,182,0,0,113,20,0,182,0,0,113,20,0,38,140,4,26,94,3,180,0,2,112,22,1,180,0,2,112,22,1,0,178,4,0,111,3,1,177,4,1,111,3,130,45,7,80,50,5,182,0,0,113,22,0,66,31,85,55,29,52
2017-08-01T23:59:58Z,115,184,169,109,182,114,165,106,95,63,0,0,0,0,0,0,1,183,1,115,0,184,0,115,0,0,0,0,0,0,0,0,44,45,95,34,46,62,83,101,0,58,72,0,182,2,0,114,20,0,87,97,0,59,70,0,180,4,0,113,22,0,179,5,0,112,22,0,179,5,0,112,22,0,41,139,4,27,95,3,175,7,2,109,26,1,176,6,2,110,25,1,2,178,4,1,112,3,0,180,4,0,113,3,130,49,5,79,53,4,184,0,0,115,22,0,67,33,84,56,31,51
2017-08-02T23:59:59Z,113,182,167,107,180,112,163,104,95,63,0,0,0,0,0,0,0,182,1,113,0,178,1,111,0,0,0,0,0,0,0,0,44,45,93,33,46,60,84,96,2,59,69,2,179,3,0,111,22,1,87,95,0,61,68,0,179,3,0,112,22,0,179,3,0,111,22,0,179,3,0,111,22,0,39,140,3,26,95,3,179,1,2,111,23,2,178,2,2,111,24,1,2,177,3,1,110,2,0,179,3,0,111,2,130,48,4,79,52,3,182,0,0,113,21,1,65,33,84,54,31,51
2017-08-03T23:59:59Z,117,186,171,111,184,116,167,108,95,64,0,0,0,0,0,0,1,185,2,117,0,186,1,117,0,0,0,0,0,0,0,0,45,47,94,34,50,61,89,97,0,62,71,1,181,5,0,114,25,1,91,95,0,63,69,0,185,1,0,117,22,0,182,4,0,114,25,0,183,3,0,114,24,0,39,144,3,26,99,3,178,6,2,111,27,2,178,6,2,112,27,1,0,182,4,0,115,3,0,182,4,0,115,3,131,51,4,80,56,3,186,0,0,117,23,1,71,30,85,59,29,52
2017-08-04T23:59:58Z,113,182,167,107,180,112,163,104,97,65,0,0,0,0,0,0,1,181,1,113,0,180,0,112,0,0,0,0,0,0,0,0,43,46,93,33,45,61,89,93,0,61,67,0,182,0,0,113,19,0,89,93,0,60,67,0,180,2,0,112,20,0,180,2,0,112,20,0,179,3,0,112,21,0,40,137,5,27,93,4,178,2,2,111,23,1,176,4,2,110,24,1,0,178,4,0,111,3,0,176,6,0,110,4,128,49,5,78,52,4,182,0,0,113,21,0,66,33,83,54,31,51
2017-08-05T23:59:59Z,116,184,169,110,182,115,165,107,98,66,0,0,0,0,0,0,1,183,1,116,0,184,0,116,0,0,0,0,0,0,0,0,42,48,94,32,48,62,83,101,0,58,73,0,175,9,0,110,26,0,87,97,0,60,70,0,177,7,0,112,23,0,176,8,0,111,25,0,176,8,0,111,25,0,41,139,4,27,96,3,173,9,2,109,27,1,173,9,2,109,28,1,0,180,4,0,114,3,0,178,6,0,113,4,132,47,5,81,52,4,184,0,0,116,22,0,65,36,83,55,32,51
2017-08-06T23:59:59Z,116,185,171,111,183,115,167,108,95,65,0,0,0,0,0,0,2,183,2,115,0,185,0,116,0,0,0,0,0,0,0,0,44,46,95,33,47,63,92,93,0,63,68,0,184,1,0,115,20,0,91,93,1,62,68,1,183,2,0,115,21,0,183,2,0,116,21,0,183,2,0,115,20,0,41,140,4,27,96,3,177,6,2,112,25,1,180,3,2,113,23,1,0,181,4,0,114,3,2,179,4,1,113,3,132,48,5,81,52,4,185,0,0,116,21,0,69,32,84,57,29,52
2017-08-07T23:59:59Z,114,181,166,108,178,113,162,105,94,64,0,0,0,0,0,0,2,179,2,113,0,177,0,112,0,0,0,0,0,0,0,0,42,44,95,32,45,63,87,94,0,60,69,0,178,3,0,112,21,0,90,91,0,62,67,0,177,4,0,112,21,0,176,5,0,111,23,0,176,5,0,111,22,0,39,138,4,26,95,3,176,3,2,111,23,1,176,3,2,111,23,1,0,175,6,0,111,4,1,176,4,1,112,3,127,49,5,78,53,4,181,0,0,114,23,0,67,33,81,55,31,51
2017-08-08T23:59:58Z,115,183,168,109,181,114,164,106,94,65,0,0,0,0,0,0,2,181,2,114,0,183,0,115,0,0,0,0,0,0,0,0,42,46,95,32,46,63,88,95,0,61,69,0,182,1,0,114,19,0,91,92,0,62,67,0,182,1,0,114,19,0,182,1,0,114,19,0,180,3,0,113,20,0,42,137,4,27,95,3,177,4,2,111,23,1,177,4,2,111,23,1,0,179,4,0,113,3,0,179,4,0,113,3,129,48,6,79,52,5,183,0,0,115,20,0,68,32,83,56,29,51
2017-08-09T23:59:59Z,114,182,167,108,180,113,163,105,95,65,0,0,0,0,0,0,2,180,2,113,0,182,0,114,0,0,0,0,0,0,0,0,43,46,93,32,45,62,85,97,0,59,69,0,179,3,0,112,19,0,86,94,2,59,67,1,176,6,0,111,21,0,177,5,0,111,20,0,179,3,0,112,19,0,37,141,4,24,96,3,176,4,2,111,21,1,176,4,2,111,21,1,0,176,6,0,111,4,0,177,5,0,112,4,126,51,5,77,52,4,182,0,0,114,20,0,66,34,82,54,31,51
2017-08-10T23:59:58Z,112,182,167,106,180,111,163,103,94,62,0,0,0,0,0,0,2,180,2,111,0,182,0,112,0,0,0,0,0,0,0,0,41,48,93,31,44,62,88,94,0,60,67,0,180,2,0,111,17,0,91,91,0,61,65,0,180,2,0,111,17,0,180,2,0,111,17,0,177,5,0,110,19,0,39,139,4,25,93,3,175,5,2,110,21,1,175,5,2,110,21,1,0,178,4,0,110,3,0,178,4,0,110,3,126,51,5,77,50,4,182,0,0,112,20,0,65,34,83,53,30,51
2017-08-11T23:59:58Z,109,175,160,103,173,108,156,100,87,58,0,0,0,0,0,0,2,173,2,108,0,173,0,108,0,0,0,0,0,0,0,0,43,44,88,32,42,59,87,88,0,60,63,0,174,1,0,108,16,0,88,87,0,60,62,0,171,4,0,107,18,0,172,3,0,107,17,0,172,3,0,107,17,0,38,133,4,25,90,3,168,5,2,105,20,1,170,3,2,106,19,1,0,171,4,0,107,3,0,171,4,0,107,3,123,47,5,75,47,4,175,0,0,109,18,0,69,28,78,56,25,48
2017-08-12T23:59:59Z,109,176,161,103,174,108,157,100,91,61,0,0,0,0,0,0,2,174,2,108,0,174,0,108,0,0,0,0,0,0,0,0,43,44,89,33,41,58,88,88,0,61,63,0,176,0,0,109,15,0,89,87,0,60,62,0,176,0,0,109,15,0,176,0,0,109,15,0,176,0,0,109,15,0,37,135,4,24,91,3,173,1,2,107,18,1,172,2,2,107,19,1,0,171,5,0,107,4,0,172,4,0,107,3,124,47,5,75,47,4,176,0,0,109,17,0,68,31,77,56,26,47
2017-08-13T23:59:59Z,114,180,165,108,178,113,161,104,95,64,0,0,0,0,0,0,3,177,3,112,0,178,0,113,0,0,0,0,0,0,0,0,44,45,91,33,45,61,86,94,0,60,68,1,177,3,0,111,20,1,90,90,0,62,65,1,178,2,0,112,19,1,177,3,0,112,20,1,178,2,0,112,19,1,38,137,5,25,95,5,173,5,2,109,24,2,174,4,2,109,23,2,0,174,6,0,111,5,0,176,4,0,112,4,127,48,5,77,52,5,180,0,0,114,19,1,69,32,79,58,30,49
2017-08-14T23:59:59Z,115,183,168,109,181,114,165,106,98,65,0,0,0,0,0,0,2,181,2,114,0,183,0,115,0,0,0,0,0,0,0,0,43,44,96,33,45,64,86,95,2,61,69,2,181,2,0,114,20,1,89,94,0,62,68,1,180,3,0,114,21,1,179,4,0,113,22,1,180,3,0,113,21,1,40,139,4,27,96,4,178,3,2,112,23,2,178,3,2,112,23,2,0,177,6,0,112,5,0,179,4,0,113,4,130,48,5,80,52,5,183,0,0,115,21,1,68,32,83,58,29,52
2017-08-15T23:59:59Z,113,181,166,107,178,112,161,104,102,68,0,0,0,0,0,0,2,179,2,112,0,181,0,113,0,0,0,0,0,0,0,0,42,43,96,32,44,65,85,96,0,60,70,1,178,3,0,112,20,1,86,95,0,60,69,1,178,3,0,112,20,1,178,3,0,112,20,1,178,3,0,112,20,1,39,138,4,26,95,4,176,3,2,111,22,2,176,3,2,111,22,2,1,176,4,1,111,4,0,177,4,0,111,4,130,46,5,80,51,5,181,0,0,113,21,1,65,33,83,56,28,52
2017-08-16T23:59:59Z,118,184,169,112,182,117,164,108,102,69,0,0,0,0,0,0,2,182,2,116,0,184,0,118,0,0,0,0,0,0,0,0,45,41,98,34,47,66,85,99,0,61,73,1,181,3,0,116,24,1,86,98,0,61,73,1,181,3,0,116,25,1,181,3,0,116,24,1,181,3,0,116,25,1,39,141,4,26,99,4,181,1,2,117,25,2,180,2,2,116,26,2,0,180,4,0,115,4,0,180,4,0,115,4,133,46,5,82,55,5,184,0,0,118,25,1,65,35,84,59,31,53
2017-08-17T23:59:59Z,118,184,168,111,180,116,161,106,100,68,0,0,0,0,0,0,2,182,2,116,0,184,0,118,0,0,0,0,0,0,0,0,42,46,96,32,49,65,87,97,0,62,72,1,182,2,0,116,22,1,90,93,1,64,69,2,183,1,0,117,22,1,183,1,0,117,22,1,183,1,0,117,22,1,39,141,4,26,99,4,181,1,2,116,24,2,181,1,2,116,24,2,0,180,4,0,115,4,1,179,4,1,115,4,130,49,5,80,55,5,184,0,0,118,24,1,67,33,84,59,31,53